TimeEDT,TemperatureF,Dew PointF,Humidity,Sea Level PressureIn,VisibilityMPH,Wind Direction,Wind SpeedMPH,Gust SpeedMPH,PrecipitationIn,Events,Conditions,WindDirDegrees,DateUTC
12:00 AM,53.6,53.6,100,29.50,2.5,SSE,9.2,-,N/A,Rain,Light Rain,160,2013-11-01 04:00:00
12:10 AM,53.6,53.6,100,29.49,1.2,SSE,6.9,-,N/A,Rain,Light Rain,150,2013-11-01 04:10:00
1:00 AM,53.6,53.6,100,29.45,3.0,SSE,9.2,-,N/A,Rain,Light Rain,160,2013-11-01 05:00:00
2:00 AM,53.6,53.6,100,29.39,2.0,SSE,13.8,-,N/A,Rain,Light Rain,150,2013-11-01 06:00:00
3:00 AM,55.4,53.6,94,29.34,3.0,SSE,12.7,-,N/A,Rain,Light Rain,160,2013-11-01 07:00:00
4:00 AM,55.4,55.4,100,29.30,2.0,SSE,11.5,-,N/A,Rain,Light Rain,150,2013-11-01 08:00:00
5:00 AM,55.4,55.4,100,29.25,3.0,SSE,11.5,17.3,N/A,Rain,Light Rain,150,2013-11-01 09:00:00
6:00 AM,57.2,55.4,94,29.22,6.0,South,12.7,20.7,N/A,Rain,Light Rain,170,2013-11-01 10:00:00
7:00 AM,57.2,55.4,94,29.18,5.0,SSE,11.5,18.4,N/A,Rain,Light Rain,160,2013-11-01 11:00:00
8:00 AM,59.0,59.0,100,29.15,6.0,South,13.8,-,N/A,Rain,Light Rain,190,2013-11-01 12:00:00
9:00 AM,62.6,59.0,88,29.14,25.0,South,13.8,28.8,N/A,,Mostly Cloudy,190,2013-11-01 13:00:00
10:00 AM,62.6,55.4,77,29.13,25.0,SSW,16.1,24.2,N/A,,Mostly Cloudy,200,2013-11-01 14:00:00
10:15 AM,62.6,55.4,77,29.13,15.0,SW,18.4,28.8,N/A,Rain,Light Rain Showers,220,2013-11-01 14:15:00
11:00 AM,62.6,53.6,72,29.12,25.0,SW,19.6,32.2,N/A,,Mostly Cloudy,220,2013-11-01 15:00:00
12:00 PM,64.4,50.0,59,29.10,40.0,SW,23.0,39.1,N/A,,Mostly Cloudy,220,2013-11-01 16:00:00
1:00 PM,60.8,44.6,55,29.11,45.0,SW,28.8,46.0,N/A,,Mostly Cloudy,220,2013-11-01 17:00:00
2:00 PM,59.0,44.6,59,29.12,45.0,SW,20.7,40.3,N/A,,Overcast,220,2013-11-01 18:00:00
2:25 PM,59.0,44.6,59,29.14,45.0,SW,24.2,46.0,N/A,Rain,Light Rain Showers,220,2013-11-01 18:25:00
3:00 PM,57.2,42.8,59,29.14,45.0,SW,27.6,44.9,N/A,,Mostly Cloudy,230,2013-11-01 19:00:00
4:00 PM,57.2,42.8,59,29.17,45.0,SW,25.3,42.6,N/A,,Overcast,220,2013-11-01 20:00:00
4:40 PM,55.4,42.8,63,29.18,25.0,SW,24.2,41.4,N/A,Rain,Light Rain Showers,220,2013-11-01 20:40:00
5:00 PM,53.6,42.8,67,29.19,12.0,SW,26.5,42.6,N/A,Rain,Light Rain Showers,230,2013-11-01 21:00:00
6:00 PM,55.4,42.8,63,29.22,25.0,WSW,28.8,43.7,N/A,,Mostly Cloudy,240,2013-11-01 22:00:00
7:00 PM,51.8,37.4,58,29.33,25.0,WSW,25.3,46.0,N/A,,Partly Cloudy,250,2013-11-01 23:00:00
8:00 PM,50.0,37.4,62,29.43,25.0,West,19.6,38.0,N/A,,Partly Cloudy,260,2013-11-02 00:00:00
9:00 PM,50.0,37.4,62,29.49,25.0,West,10.4,25.3,N/A,,Scattered Clouds,270,2013-11-02 01:00:00
10:00 PM,48.2,37.4,66,29.55,25.0,West,9.2,18.4,N/A,,Partly Cloudy,280,2013-11-02 02:00:00
11:00 PM,46.4,35.6,66,29.60,25.0,Calm,Calm,-,N/A,,Scattered Clouds,0,2013-11-02 03:00:00